Hourly Data Report for October 04, 2013

All times are specified in Local Standard Time (LST). Add 1 hour to adjust for Daylight Saving Time where and when it is observed.

ARVIAT A
NUNAVUT

61°05'38.000" N
94°04'18.000" W
10.40 m
2300427
71174
YEK

Download Data

Hourly Data (October 2013)
Hourly Data Report for October 4, 2013
Temp Definition
°C
Dew Point Temp Definition
°C
Rel Hum Definition
%
Wind Dir Definition
10's deg

Wind Spd Definition
km/h
Visibility Definition
km
Stn Press Definition
kPa
Hmdx Definition


Wind Chill Definition


Weather Definition


TIME
00:00 Legend Double Dagger -2.6 -6.6 74 1 26 16.1 102.64   -9 LegendNANA
01:00 Legend Double Dagger -2.7 -6.5 75 35 24 16.1 102.66   -9 LegendNANA
02:00 Legend Double Dagger -2.7 -6.6 75 36 22 16.1 102.68   -9 LegendNANA
03:00 Legend Double Dagger -3.1 -7.3 73 36 24 16.1 102.72   -10 LegendNANA
04:00 Legend Double Dagger -3.2 -7.4 73 35 22 16.1 102.75   -10 LegendNANA
05:00 Legend Double Dagger -3.0 -7.2 73 35 21 16.1 102.77   -9 LegendNANA
06:00 Legend Double Dagger -2.7 -6.7 74 34 22 16.1 102.80   -9 LegendNANA
07:00 Legend Double Dagger -2.6 -6.3 76 35 22 16.1 102.79   -9 LegendNANA
08:00 Legend Double Dagger -2.8 -5.2 84 33 22 16.1 102.81   -9 LegendNANA
09:00 Legend Double Dagger -3.0 -5.1 85 34 21 16.1 102.82   -9 LegendNANA
10:00 Legend Double Dagger -2.7 -6.0 78 35 21 16.1 102.82   -9 LegendNANA
11:00 Legend Double Dagger -2.6 -7.0 72 34 18 16.1 102.84   -8 LegendNANA
12:00 Legend Double Dagger -2.6 -5.4 81 34 17 16.1 102.85   -8 LegendNANA
13:00 Legend Double Dagger -2.6 -6.3 76 33 15 16.1 102.85   -8 LegendNANA
14:00 Legend Double Dagger -2.0 -6.4 72 36 15 16.1 102.84   -7 LegendNANA
15:00 Legend Double Dagger -2.0 -5.9 75 36 11 16.1 102.82   -6 LegendNANA
16:00 Legend Double Dagger -2.0 -6.1 74 30 8 16.1 102.80   -5 LegendNANA
17:00 Legend Double Dagger -1.7 -5.4 76 32 17 16.1 102.77   -7 LegendNANA
18:00 Legend Double Dagger -3.2 -4.8 89 34 8 6.4 102.76   -6 LegendNANA
19:00 Legend Double Dagger -2.7 -6.3 77 32 11 16.1 102.74   -7 LegendNANA
20:00 Legend Double Dagger -2.7 -7.1 72 31 8 16.1 102.72   -6 LegendNANA
21:00 Legend Double Dagger -2.6 -6.3 76 30 9 16.1 102.70   -6 LegendNANA
22:00 Legend Double Dagger -2.7 -6.9 73 30 9 16.1 102.66   -6 LegendNANA
23:00 Legend Double Dagger -3.0 -7.2 73 27 9 16.1 102.65   -7 LegendNANA

Notes on Data Quality.

Legend

  • E = Estimated
  • M = Missing
  • NA = Not Available
  • ‡ = Partner data that is not subject to review by the National Climate Archives
Date modified: